YO4ISC-13 Weather Reports


Display with metric or nautical units.
time (UTC)temp
F
wind
direction
speed
MPH
gust
MPH
rain 1hr
in
rain 24hr
in
rain mn
in
humidity
%
barometer
mb
20260906071002 73 353 4.0 6.0 0.00 0.00 0.00 61 1019.0
20260906070002 73 349 9.0 12.0 0.00 0.00 0.00 63 1020.0
20260906065001 72 10 8.0 14.0 0.00 0.00 0.00 64 1019.0
20260906064002 72 29 7.0 11.0 0.00 0.00 0.00 65 1019.0
20260906063002 72 32 17.0 17.0 0.00 0.00 0.00 64 1019.0
20260906062001 72 26 10.0 12.0 0.00 0.00 0.00 67 1019.0
20260906061002 71 9 9.0 12.0 0.00 0.00 0.00 69 1019.0
20260906060001 72 27 8.0 14.0 0.00 0.00 0.00 70 1019.0
20260906055003 72 28 18.0 19.0 0.00 0.00 0.00 71 1019.0
20260906054002 72 32 6.0 10.0 0.00 0.00 0.00 71 1019.0
20260906053001 72 34 11.0 17.0 0.00 0.00 0.00 68 1019.0
20260906052002 71 35 11.0 15.0 0.00 0.00 0.00 69 1018.0
20260906051002 71 29 10.0 14.0 0.00 0.00 0.00 68 1018.0
20260906050001 71 31 14.0 16.0 0.00 0.00 0.00 68 1018.0
20260906045002 71 41 8.0 11.0 0.00 0.00 0.00 69 1018.0
20260906044002 71 24 5.0 10.0 0.00 0.00 0.00 72 1018.0
20260906043001 71 17 9.0 14.0 0.00 0.00 0.00 74 1018.0
20260906042002 71 21 7.0 11.0 0.00 0.00 0.00 75 1018.0
20260906041002 71 20 15.0 16.0 0.00 0.00 0.00 76 1017.0
20260906040001 71 24 9.0 12.0 0.00 0.00 0.00 77 1017.0
20260906035002 70 26 11.0 13.0 0.00 0.00 0.00 78 1017.0
20260906034002 70 19 11.0 12.0 0.00 0.00 0.00 78 1017.0
20260906033001 70 20 9.0 9.0 0.00 0.00 0.00 77 1017.0
20260906032002 70 23 8.0 10.0 0.00 0.00 0.00 77 1017.0
20260906031002 71 11 6.0 9.0 0.00 0.00 0.00 76 1017.0
20260906030001 71 33 9.0 15.0 0.00 0.00 0.00 75 1017.0
20260906025002 71 353 9.0 12.0 0.00 0.00 0.00 74 1016.0
20260906024001 71 17 14.0 17.0 0.00 0.00 0.00 74 1016.0
20260906023002 71 25 13.0 13.0 0.00 0.00 0.00 73 1016.0
20260906022002 71 31 9.0 15.0 0.00 0.00 0.00 73 1016.0
20260906021001 71 29 7.0 13.0 0.00 0.00 0.00 73 1016.0
20260906020002 71 36 12.0 15.0 0.00 0.00 0.00 74 1016.0
20260906015002 69 34 6.0 9.0 0.00 0.00 0.00 76 1016.0
20260906014001 67 33 4.0 4.0 0.00 0.00 0.00 74 1016.0
20260906013002 67 359 0.0 1.0 0.00 0.00 0.00 73 1016.0
20260906012002 66 352 1.0 2.0 0.00 0.00 0.00 73 1016.0
20260906011001 67 350 3.0 4.0 0.00 0.00 0.00 73 1016.0
20260906010002 67 326 2.0 4.0 0.00 0.00 0.00 73 1016.0
20260906005002 67 333 6.0 6.0 0.00 0.00 0.00 73 1016.0
20260906004001 67 347 7.0 8.0 0.00 0.00 0.00 75 1016.0
20260906003002 67 313 7.0 8.0 0.00 0.00 0.00 77 1016.0
20260906002001 67 328 5.0 6.0 0.00 0.00 0.00 79 1016.0
20260906001002 67 319 2.0 4.0 0.00 0.00 0.00 78 1015.0
20260906000001 67 338 4.0 4.0 0.00 0.00 0.00 80 1015.0
20260905235001 67 240 0.0 0.0 0.00 0.00 0.00 82 1015.0
20260905234002 67 201 0.0 2.0 0.00 0.00 0.00 81 1015.0
20260905233001 67 218 0.0 1.0 0.00 0.00 0.00 80 1015.0
20260905232001 67 254 1.0 2.0 0.00 0.00 0.00 81 1015.0
20260905231002 67 230 0.0 0.0 0.00 0.00 0.00 81 1015.0
20260905230001 67 186 0.0 1.0 0.00 0.00 0.00 82 1015.0
20260905225002 67 196 1.0 1.0 0.00 0.00 0.00 82 1015.0
20260905224002 68 194 2.0 3.0 0.00 0.00 0.00 81 1015.0
20260905223001 68 209 3.0 4.0 0.00 0.00 0.00 82 1015.0
20260905222002 68 202 2.0 3.0 0.00 0.00 0.00 82 1015.0
20260905221002 68 205 0.0 1.0 0.00 0.00 0.00 82 1016.0
20260905220001 68 226 0.0 1.0 0.00 0.00 0.00 82 1016.0
20260905215002 69 219 1.0 1.0 0.00 0.00 0.00 82 1016.0
20260905214002 69 206 1.0 2.0 0.00 0.00 0.00 82 1016.0
20260905213001 69 206 2.0 2.0 0.00 0.00 0.00 81 1016.0
20260905212002 69 209 2.0 3.0 0.00 0.00 0.00 80 1016.0
20260905211002 69 197 2.0 2.0 0.00 0.00 0.00 80 1016.0
20260905210002 69 198 2.0 2.0 0.00 0.00 0.00 79 1016.0
20260905205002 70 198 0.0 1.0 0.00 0.00 0.00 78 1016.0
20260905204002 70 200 2.0 3.0 0.00 0.00 0.00 78 1016.0
20260905203001 70 185 2.0 3.0 0.00 0.00 0.00 78 1016.0
20260905202002 71 191 2.0 2.0 0.00 0.00 0.00 77 1016.0
20260905201002 71 196 0.0 0.0 0.00 0.00 0.00 76 1016.0
20260905200001 71 224 1.0 1.0 0.00 0.00 0.00 76 1016.0
20260905195002 71 175 3.0 4.0 0.00 0.00 0.00 76 1016.0
20260905194002 72 175 3.0 3.0 0.00 0.00 0.00 75 1016.0
20260905193001 72 176 2.0 3.0 0.00 0.00 0.00 73 1016.0
20260905192002 73 183 2.0 3.0 0.00 0.00 0.00 72 1016.0
20260905191001 73 191 3.0 3.0 0.00 0.00 0.00 71 1016.0
20260905190001 73 191 2.0 3.0 0.00 0.00 0.00 70 1016.0
20260905185002 73 189 2.0 3.0 0.00 0.00 0.00 69 1016.0
20260905184001 74 192 3.0 3.0 0.00 0.00 0.00 68 1016.0
20260905183001 74 198 2.0 4.0 0.00 0.00 0.00 67 1016.0
20260905182002 74 192 2.0 3.0 0.00 0.00 0.00 66 1016.0
20260905181001 75 182 4.0 4.0 0.00 0.00 0.00 65 1016.0
20260905180001 75 178 2.0 3.0 0.00 0.00 0.00 64 1016.0
20260905175002 75 195 3.0 3.0 0.00 0.00 0.00 62 1016.0
20260905174001 76 182 2.0 2.0 0.00 0.00 0.00 61 1016.0
20260905173002 76 195 2.0 3.0 0.00 0.00 0.00 59 1016.0
20260905172002 77 201 4.0 4.0 0.00 0.00 0.00 57 1016.0
20260905171001 77 210 5.0 6.0 0.00 0.00 0.00 55 1016.0
20260905170002 78 208 3.0 6.0 0.00 0.00 0.00 54 1016.0
20260905165002 79 207 4.0 5.0 0.00 0.00 0.00 53 1016.0
20260905164001 79 207 3.0 4.0 0.00 0.00 0.00 52 1016.0
20260905163002 80 201 3.0 4.0 0.00 0.00 0.00 52 1016.0
20260905162002 81 202 5.0 5.0 0.00 0.00 0.00 50 1016.0
20260905161001 81 206 4.0 5.0 0.00 0.00 0.00 49 1015.0
20260905160002 82 195 6.0 7.0 0.00 0.00 0.00 49 1016.0
20260905155002 82 199 8.0 11.0 0.00 0.00 0.00 48 1016.0
20260905154001 82 178 9.0 11.0 0.00 0.00 0.00 56 1015.0
20260905153002 82 173 2.0 4.0 0.00 0.00 0.00 62 1015.0
20260905152002 82 181 6.0 7.0 0.00 0.00 0.00 61 1016.0
20260905151001 82 200 7.0 9.0 0.00 0.00 0.00 60 1015.0
20260905150002 82 201 5.0 7.0 0.00 0.00 0.00 57 1015.0
20260905145002 83 186 3.0 8.0 0.00 0.00 0.00 54 1015.0
20260905144001 82 177 10.0 11.0 0.00 0.00 0.00 57 1015.0
20260905143002 82 184 7.0 11.0 0.00 0.00 0.00 58 1015.0
20260905142002 82 175 8.0 11.0 0.00 0.00 0.00 57 1015.0
20260905141001 83 180 6.0 11.0 0.00 0.00 0.00 57 1015.0
20260905140002 83 180 8.0 12.0 0.00 0.00 0.00 55 1016.0
20260905135002 83 182 6.0 7.0 0.00 0.00 0.00 54 1015.0
20260905134001 82 169 7.0 13.0 0.00 0.00 0.00 56 1015.0
20260905133002 83 182 9.0 16.0 0.00 0.00 0.00 54 1015.0
20260905132002 83 179 8.0 10.0 0.00 0.00 0.00 56 1016.0
20260905131001 82 159 11.0 11.0 0.00 0.00 0.00 56 1016.0
20260905130002 83 179 8.0 11.0 0.00 0.00 0.00 56 1016.0
20260905125001 82 154 7.0 15.0 0.00 0.00 0.00 56 1016.0
20260905124001 82 168 9.0 12.0 0.00 0.00 0.00 59 1016.0
20260905123002 82 171 13.0 13.0 0.00 0.00 0.00 62 1016.0
20260905122002 83 172 7.0 13.0 0.00 0.00 0.00 56 1016.0
20260905121001 82 161 6.0 11.0 0.00 0.00 0.00 58 1016.0
20260905120002 83 178 8.0 13.0 0.00 0.00 0.00 56 1016.0
20260905115002 84 168 8.0 11.0 0.00 0.00 0.00 52 1017.0
20260905114001 84 160 12.0 13.0 0.00 0.00 0.00 52 1017.0
20260905113002 84 172 15.0 15.0 0.00 0.00 0.00 52 1017.0
20260905112002 83 171 10.0 14.0 0.00 0.00 0.00 54 1017.0
20260905111001 82 179 9.0 11.0 0.00 0.00 0.00 56 1017.0
20260905110002 83 162 8.0 15.0 0.00 0.00 0.00 53 1017.0
20260905105001 83 166 8.0 15.0 0.00 0.00 0.00 56 1017.0
20260905104001 83 169 14.0 17.0 0.00 0.00 0.00 53 1017.0
20260905103002 83 164 11.0 14.0 0.00 0.00 0.00 49 1017.0
20260905102001 83 164 13.0 14.0 0.00 0.00 0.00 50 1017.0
20260905101001 83 162 10.0 11.0 0.00 0.00 0.00 53 1017.0
20260905100002 83 174 11.0 11.0 0.00 0.00 0.00 51 1017.0
20260905095001 84 168 11.0 15.0 0.00 0.00 0.00 48 1018.0
20260905094001 84 169 7.0 13.0 0.00 0.00 0.00 50 1018.0
20260905093002 83 165 8.0 12.0 0.00 0.00 0.00 50 1018.0
20260905092001 85 166 11.0 12.0 0.00 0.00 0.00 45 1018.0
20260905091001 85 155 10.0 13.0 0.00 0.00 0.00 50 1018.0
20260905090002 84 166 6.0 6.0 0.00 0.00 0.00 46 1018.0
20260905085002 84 153 9.0 10.0 0.00 0.00 0.00 47 1018.0
20260905084001 84 160 3.0 4.0 0.00 0.00 0.00 49 1018.0
20260905083002 84 167 10.0 11.0 0.00 0.00 0.00 47 1018.0
20260905082001 83 165 6.0 7.0 0.00 0.00 0.00 53 1018.0
20260905081001 83 167 3.0 6.0 0.00 0.00 0.00 52 1018.0
20260905080002 83 127 6.0 11.0 0.00 0.00 0.00 51 1018.0
20260905075001 83 140 6.0 8.0 0.00 0.00 0.00 58 1018.0
20260905074002 84 163 4.0 6.0 0.00 0.00 0.00 49 1018.0
20260905073002 82 146 6.0 9.0 0.00 0.00 0.00 49 1018.0
20260905072001 82 101 8.0 9.0 0.00 0.00 0.00 57 1018.0